Regional Weather Roundup
Issued by NWS

Home | Current Version | Previous Version | Graphics & Text | Print | Product List | Glossary On
Versions: 1 2 3 4 5 6 7 8 9 10 11 12 13 14 15 16 17 18 19 20 21 22 23 24 25 26 27 28 29 30 31 32 33 34 35 36 37 38 39 40 41 42 43 44 45 46 47 48 49 50
704
ASUS45 KSLC 260710
RWRUT

UTAH REGIONAL WEATHER ROUNDUP
NATIONAL WEATHER SERVICE SALT LAKE CITY UT
100 AM MDT MON SEP 26 2016

UTZ001>011-023>025-260800-

NORTHERN UTAH

CITY           SKY/WX    TMP DP  RH WIND       PRES   REMARKS
BRIGHAM CITY     N/A     51  46  85 CALM      30.43S
HILL AFB       CLEAR     53  38  58 E10       30.43F
LOGAN          CLEAR     47  44  90 CALM      30.44S
OGDEN          CLEAR     51  41  68 S5        30.42F
PROVO AIRPORT  CLEAR     47  42  83 E5        30.45S
SALT LAKE CITY CLEAR     52  45  77 SE7       30.43R
VERNAL         CLOUDY    46  40  79 W3        30.46S
WENDOVER       CLEAR     54  39  58 CALM      30.43S
HEBER CITY     CLEAR     39  36  87 CALM      30.47S
WEST JORDAN    CLEAR     51  40  67 SW6       30.45S

$$

UTZ012>022-026-027-260800-

SOUTHERN/CENTRAL UTAH

CITY           SKY/WX    TMP DP  RH WIND       PRES   REMARKS
BLANDING       CLEAR     50  29  45 N8        30.46S
BRYCE CANYON   CLEAR     43  29  57 N7        30.52S
CEDAR CITY     CLEAR     45  36  70 CALM      30.43R
DELTA          CLEAR     50  37  62 NE6       30.43S
MILFORD        CLEAR     53  42  66 NW10      30.43S
MOAB/CYNLANDS  CLEAR     51  39  63 W3        30.37S
PRICE          CLEAR     51  37  58 N9        30.45F
ST GEORGE      SUNNY     70  37  30 NE9       30.29R

$$

REGIONAL REPORTS     COLORADO/ARIZONA

CITY           SKY/WX    TMP DP  RH WIND       PRES   REMARKS
CRAIG, CO      CLOUDY    37  33  85 CALM      30.51S
GRAND JUNCTION CLEAR     51  37  58 CALM      30.39F
RIFLE          CLOUDY    47  41  80 SW5       30.47R
MONTROSE       CLOUDY    47  37  68 SE9       30.47S
CORTEZ         CLEAR     42  35  76 E3        30.41S
PAGE, AZ       CLEAR     59  36  42 W3        30.33S
GRAND CANYON   CLEAR     58  29  33 NE12G22   30.42S
KINGMAN        CLEAR     69  31  24 NE13      30.20F
FLAGSTAFF      PTCLDY    55  29  36 NE9       30.42R

$$

REGIONAL REPORTS    NEVADA/IDAHO/WYOMING

CITY           SKY/WX    TMP DP  RH WIND       PRES   REMARKS
LAS VEGAS, NV  CLEAR     77  23  13 N13       30.16S
ELY            CLEAR     42  28  57 S7        30.49R
ELKO           CLEAR     50  39  66 S3        30.42F
POCATELLO, ID  CLEAR     47  37  68 E3        30.46R
BURLEY         CLEAR     46  43  89 S3        30.42S
EVANSTON, WY   CLOUDY    49  31  49 CALM      30.53F HAZE
ROCK SPRINGS   CLOUDY    45  36  70 SW9       30.49S

$$




USA.gov is the U.S. government's official web portal to all federal, state and local government web resources and services.